Theta_e
308 307 306 306 305 304 303 303 300 296 296 299 300 300 300 300 301 302 303 303 302 303 304 305 304 304 305 305 305 306 306 307 308 310 312 313 314 315
308 308 307 305 305 304 303 303 302 300 296 299 300 300 300 300 302 303 303 301 302 303 304 303 303 304 304 305 305 306 306 307 307 308 311 311 312 314
307 308 307 305 304 303 303 302 301 301 297 300 299 300 300 301 302 302 302 301 301 301 302 303 304 304 304 304 304 306 305 306 307 309 310 309 311 312
306 306 306 304 303 303 302 302 301 301 300 298 299 299 300 302 301 301 300 299 299 299 301 302 303 303 304 304 305 306 306 306 307 308 309 310 311 312
306 305 305 304 303 303 302 302 301 301 300 299 299 300 301 301 301 299 300 300 300 300 300 302 303 304 305 304 304 305 306 306 305 306 308 309 309 312
305 305 304 304 303 303 302 302 301 300 299 299 300 300 301 301 300 300 300 300 300 300 301 301 302 303 304 305 305 306 305 305 305 305 306 306 307 309
304 304 304 304 304 303 302 301 300 300 300 300 300 300 300 300 300 301 299 299 300 300 300 300 300 301 302 304 305 305 306 305 305 307 306 306 307 307
303 303 304 304 303 303 302 301 301 300 301 301 301 300 300 300 300 300 299 298 299 299 300 300 301 302 302 303 304 304 305 305 305 307 307 306 307 307
303 303 303 303 303 304 305 304 301 303 305 304 302 301 300 300 300 300 299 299 299 300 301 303 304 305 305 304 304 304 305 305 305 305 305 307 307 307
303 304 303 303 303 302 303 303 304 304 303 301 300 300 302 301 301 301 301 301 302 303 303 304 304 304 304 304 305 305 305 305 305 307 308 308 307 307
303 303 303 302 302 301 300 301 301 300 300 300 301 302 301 301 301 301 301 302 303 303 304 304 304 305 304 305 305 305 305 305 306 308 308 307 307 310
301 302 302 302 300 301 301 300 300 300 299 300 301 299 299 299 298 300 300 302 302 303 304 304 304 304 306 306 306 305 306 305 307 308 307 306 308 309
299 300 300 300 302 304 302 300 300 300 302 302 299 298 298 298 300 300 300 301 301 302 303 304 305 305 308 307 306 305 306 308 309 307 307 307 309 311
299 300 300 300 302 303 303 301 302 302 301 298 298 297 297 299 300 300 300 302 304 304 306 305 305 307 308 308 307 308 308 309 308 308 307 309 311 314
300 300 300 301 302 303 302 302 302 300 298 298 297 297 299 300 300 301 304 308 312 312 312 307 307 308 308 307 307 308 307 307 307 307 307 309 312 314
300 301 301 302 303 302 301 301 300 298 298 296 296 299 299 299 300 302 303 306 311 311 308 307 309 308 307 306 306 307 307 307 307 308 311 313 313 314
301 303 303 303 301 300 300 299 298 298 297 296 297 299 299 299 301 302 304 307 311 312 311 309 309 308 307 307 307 307 310 308 309 311 311 310 310 312
301 301 300 300 299 299 298 297 297 296 296 297 299 298 298 299 301 302 303 306 312 311 310 310 310 309 309 308 308 309 310 310 310 310 310 309 308 310
299 299 299 299 298 298 297 297 296 296 297 298 298 297 298 299 300 301 302 305 313 312 311 310 310 310 310 310 310 310 310 310 309 309 309 310 307 308
299 299 299 298 298 297 296 296 296 297 297 299 298 297 297 299 300 300 301 303 309 312 310 309 309 309 309 309 308 308 310 309 309 308 308 308 308 308
299 299 299 298 297 296 296 297 298 298 298 297 297 296 296 298 299 300 301 302 305 310 310 309 308 310 309 308 306 305 307 308 309 309 307 307 307 307
299 298 298 297 297 296 296 297 297 297 297 296 296 296 296 297 298 299 300 301 303 308 308 308 307 308 308 307 306 304 304 307 309 309 309 309 309 306
298 298 297 297 297 296 296 297 297 297 296 296 296 295 295 296 297 298 299 300 302 306 309 308 308 307 307 306 306 305 306 307 308 308 308 308 308 309
Wind_Speed
45 43 38 36 32 27 25 21 11 4 4 8 10 13 11 11 12 13 14 15 19 18 18 19 22 24 25 24 25 24 23 22 20 21 21 20 20 21
43 42 40 35 33 29 25 23 21 15 3 14 15 12 14 15 14 15 15 21 19 19 21 24 26 26 26 26 26 23 22 21 21 23 21 21 22 22
40 42 42 37 34 31 26 23 21 20 9 11 15 17 19 17 17 17 18 21 24 24 26 24 23 24 24 24 24 24 24 23 24 24 23 22 23 23
41 41 42 37 32 31 28 26 24 22 19 13 17 18 19 17 16 19 22 25 24 23 23 24 25 27 28 28 25 25 26 27 24 25 25 22 23 23
43 42 42 40 35 32 29 27 24 22 20 19 16 18 18 18 21 22 22 23 22 25 25 24 24 24 28 29 28 30 31 31 32 28 26 24 23 23
40 43 43 42 40 34 30 28 25 21 19 18 16 16 19 22 21 23 26 26 28 30 30 29 28 28 27 27 28 29 31 33 33 31 31 29 27 24
39 42 43 40 38 34 32 29 24 21 18 14 14 17 20 22 21 24 23 27 33 33 36 33 31 31 29 28 31 32 34 35 35 31 30 29 28 25
37 38 38 36 33 30 28 26 25 23 19 15 17 16 21 23 22 22 25 19 11 24 29 29 26 28 29 31 32 30 29 30 33 32 31 28 26 23
35 37 36 35 31 28 23 20 20 18 15 16 19 18 20 21 22 26 25 25 29 31 28 30 27 29 29 30 33 34 31 28 27 29 31 26 22 21
37 39 37 34 33 29 26 23 21 18 17 16 17 19 20 22 27 29 33 33 36 37 32 24 29 31 30 29 31 32 31 25 24 23 25 24 21 18
37 37 37 33 30 28 25 22 18 16 15 13 14 16 20 24 26 30 30 25 22 29 29 27 27 24 22 26 29 28 26 24 21 21 23 23 21 19
34 35 34 32 28 24 23 19 14 14 11 11 14 18 22 27 31 30 32 27 26 16 17 18 22 13 7 18 23 22 23 20 21 21 23 22 22 17
29 32 34 30 25 20 17 13 10 6 8 10 15 20 25 30 35 31 30 29 29 27 30 17 11 18 7 7 14 19 21 22 24 24 23 25 19 25
28 33 31 27 24 19 13 8 6 6 6 10 14 22 27 34 34 33 35 34 33 37 45 30 14 18 12 10 9 23 22 25 24 26 27 22 22 22
36 33 29 24 20 16 12 7 4 2 5 9 15 21 27 33 33 32 34 30 25 18 5 31 23 21 24 13 14 20 25 21 22 27 25 23 23 30
32 30 26 23 19 15 9 6 2 1 3 9 14 20 29 30 27 27 28 30 20 13 21 26 27 27 21 20 24 24 24 11 25 24 23 28 33 33
32 29 28 22 17 12 8 7 5 3 6 10 14 21 27 24 24 27 25 22 15 13 16 30 26 28 30 28 23 24 18 26 23 26 32 29 27 31
30 26 23 20 16 13 13 10 7 4 6 9 11 21 24 21 24 25 25 22 15 21 24 22 29 30 28 24 21 21 25 25 29 28 29 26 21 23
27 22 22 19 16 15 12 10 6 4 6 8 13 21 22 20 22 22 22 21 14 20 19 26 25 24 12 10 20 23 30 25 27 22 25 20 17 22
26 23 21 17 18 16 13 10 7 6 9 9 14 20 22 19 20 21 21 20 13 17 19 20 21 23 17 7 11 23 25 29 26 23 23 21 19 17
23 21 18 19 19 16 12 10 7 10 10 10 13 19 23 19 20 21 21 21 20 13 17 18 21 31 32 28 17 17 21 20 27 30 27 25 15 15
21 20 18 19 19 15 12 10 9 10 9 10 12 18 22 21 21 22 22 21 21 16 20 23 25 29 25 24 20 21 25 23 23 30 21 12 12 8
20 20 19 19 16 13 11 10 10 9 9 9 11 16 20 22 21 21 21 21 20 19 9 18 18 20 19 22 27 23 28 30 29 20 16 12 6 5
Wind_Direction
232 231 229 227 227 228 222 213 179 191 238 226 207 217 206 282 276 276 271 277 284 277 271 272 274 272 268 268 267 267 269 266 269 268 269 264 264 261
229 229 229 224 221 220 222 224 218 202 205 216 217 217 263 285 283 276 272 284 278 275 276 280 275 264 265 266 265 263 262 260 268 264 262 265 263 259
221 225 227 222 217 217 218 216 215 214 205 244 237 257 274 281 281 275 279 281 284 280 282 278 270 268 266 265 261 256 255 260 265 262 257 261 261 259
219 220 221 217 212 213 212 217 221 222 227 234 259 266 275 278 276 285 290 288 288 288 286 279 274 271 266 263 260 253 251 261 265 261 258 261 260 257
217 214 214 213 211 209 213 220 222 221 232 242 259 271 274 277 289 293 293 294 292 296 293 283 277 271 262 262 260 255 253 253 267 264 256 255 256 254
212 216 212 213 215 213 216 219 219 226 233 242 250 259 273 287 291 293 295 297 294 297 290 278 273 270 261 256 256 253 253 258 262 254 255 249 248 247
209 213 217 217 220 220 216 216 221 225 225 226 247 265 274 284 284 295 284 285 290 290 286 277 275 275 269 261 258 254 251 252 254 250 245 247 241 242
198 210 214 214 215 215 215 223 226 219 221 234 253 255 269 279 291 284 279 281 286 283 269 266 263 254 253 252 260 258 254 248 246 242 244 240 236 237
198 202 205 205 206 205 208 211 219 227 240 252 250 260 275 289 297 289 282 271 268 271 271 266 259 254 249 244 246 249 249 249 241 238 239 232 229 236
199 208 201 200 203 204 200 213 218 224 233 248 266 278 287 296 293 290 283 277 278 273 262 261 255 248 252 246 246 240 241 238 230 231 224 217 215 211
201 203 198 195 196 197 206 214 218 233 250 258 270 280 289 291 289 289 281 277 271 270 263 245 247 237 244 242 242 233 228 224 227 217 212 198 195 193
193 194 195 194 189 194 202 204 216 243 259 275 289 299 302 300 301 294 277 269 272 283 277 233 243 218 214 209 215 216 208 212 208 198 196 188 187 193
175 176 180 183 177 179 198 207 224 250 275 288 308 312 313 315 313 300 282 269 267 258 257 216 230 200 197 129 170 194 190 186 185 182 185 183 190 177
168 172 175 177 176 176 183 196 217 257 285 314 323 324 324 319 314 307 303 298 288 267 274 209 206 175 142 135 139 152 162 165 172 177 177 177 183 175
170 172 168 172 171 164 181 192 218 258 321 335 333 325 324 324 322 314 326 340 340 329 12 180 177 162 144 146 140 136 144 146 166 171 173 180 180 159
165 161 165 166 164 167 175 178 166 60 357 350 337 328 334 331 317 328 330 335 339 84 111 145 159 150 144 139 138 135 140 141 159 156 160 158 160 164
151 146 151 152 150 158 156 141 114 80 359 353 337 340 341 331 328 343 345 351 27 92 108 129 123 142 139 133 128 137 127 131 142 142 138 134 148 163
139 141 150 156 154 145 140 130 109 46 36 358 351 355 347 333 340 350 0 4 47 71 101 121 118 116 113 116 136 140 130 132 140 141 142 130 137 166
135 146 153 153 140 145 144 131 114 76 18 25 9 6 360 347 355 357 1 7 47 78 97 114 120 124 117 115 111 126 125 129 130 127 140 141 145 165
148 152 153 146 145 144 135 126 113 56 50 49 21 14 12 357 1 3 7 5 15 85 84 89 103 111 114 107 102 108 138 133 140 135 138 147 148 161
144 148 150 147 144 140 130 121 95 74 70 52 27 20 18 7 6 8 11 13 25 53 92 88 105 124 120 111 98 90 107 141 156 152 143 136 137 145
147 148 151 146 141 137 128 117 96 81 64 48 35 24 21 19 12 6 15 17 14 38 101 114 115 117 120 122 118 114 111 124 145 144 143 147 150 156
150 150 148 141 137 133 127 112 95 90 65 49 36 23 21 20 18 14 14 26 26 43 106 112 119 117 118 134 134 137 136 137 143 141 130 125 87 147